Content
SEND FEEDBACK

Daily
Averages
Monthly
Summary
Philippines

ZAMBOANGA, PHILIPPINES


Home > Asia > Philippines
Elevation: 20 feet     Latitude: 06 54N     Longitude: 122 04E

WEATHER
 
SELECT A DAY
Number of Records: 74,780;   Date Range: 4/1/04 - 8/12/14
 
SHARE

PRINT THIS DATA

[ ← Previous Day ]
WEATHER ALMANAC - JANUARY 31, 2013
[ Next Day → ]
[ °C ]   °F
Weather ElementAverageHighLow
Temperature83 °F89.6 °F (4:00 pm)77 °F (2:00 am)
Dewpoint75.6 °F78.8 °F (3:00 pm)73.4 °F (4:00 pm)
Humidity77.5 %95 % (5:00 am)55 % (5:00 pm)
Barometer29.93 in29.98 in (9:00 am)29.88 in (5:00 am)
Wind Speed3 mph9.2 mph (10:00 am)
Weather ElementAverage
Visibility6.3 mi
Wind DirectionENE (69.5 °)

Weather ElementTotal
Precipitation---
Cooling Degree Days18.3 (Base 65)
Growing Degree Days33.3 (Base 50)
Averaged from 23 records on January 31, 2013
WEATHER CONDITIONS BREAKOUT
WIND DIRECTION BREAKOUT
WEATHER BY HOUR - JANUARY 31, 2013
[ °C ]   °F
Local TimeTemperatureDewpointHumidityBarometerVisibilityWind DirectionWind SpeedGust SpeedPrecipitationEventsConditions
2:00 AM77.0 °F75.2 °F94 %29.92 in5.6 miCalmMostly Cloudy
5:00 AM77.0 °F76.0 °F95 %29.88 in6.0 miCalmPartly Cloudy
5:00 AM77.0 °F75.2 °F94 %29.92 in5.6 miCalmMostly Cloudy
6:00 AM77.0 °F75.2 °F94 %29.92 in6.2 miCalmMostly Cloudy
7:00 AM77.0 °F75.2 °F94 %29.95 in6.2 miCalmMostly Cloudy
8:00 AM78.8 °F75.2 °F89 %29.95 in6.2 miNE (40°)2.3 mphScattered Clouds
8:00 AM80.0 °F76.0 °F82 %29.95 in7.0 miNE (40°)2.2 mphRainLight Rain Showers
9:00 AM86.0 °F75.2 °F70 %29.98 in6.2 miENE (70°)6.9 mphScattered Clouds
10:00 AM86.0 °F77.0 °F74 %29.95 in6.2 miNE (40°)9.2 mphScattered Clouds
11:00 AM88.0 °F77.0 °F62 %29.95 in7.0 miEast (90°)6.7 mphMostly Cloudy
11:00 AM87.8 °F77.0 °F70 %29.95 in6.2 miEast (90°)6.9 mphMostly Cloudy
12:00 PM87.8 °F77.0 °F70 %29.95 in6.2 miSE (140°)4.6 mphPartly Cloudy
1:00 PM87.8 °F77.0 °F70 %29.92 in6.2 miSW (220°)4.6 mphScattered Clouds
2:00 PM86.0 °F76.0 °F67 %29.88 in7.0 miSW (220°)6.7 mphPartly Cloudy
2:00 PM86.0 °F77.0 °F74 %29.89 in6.2 miSW (220°)6.9 mphScattered Clouds
3:00 PM86.0 °F78.8 °F79 %29.89 in6.2 miCalmScattered Clouds
4:00 PM89.6 °F73.4 °F59 %29.89 in6.2 miNE (40°)2.3 mphPartly Cloudy
5:00 PM87.8 °F73.4 °F62 %29.89 in6.2 miEast (90°)4.6 mphScattered Clouds
5:00 PM88.0 °F74.0 °F55 %29.88 in7.0 miEast (90°)4.5 mphScattered Clouds
6:00 PM84.2 °F75.2 °F74 %29.92 in6.2 miCalmScattered Clouds
8:00 PM81.0 °F75.0 °F78 %29.94 in6.0 miCalmHaze
11:00 PM77.0 °F74.0 °F87 %29.97 in6.0 miCalmHaze
11:00 PM77.0 °F73.4 °F89 %29.95 in6.2 miCalmMostly Cloudy
Hourly data recorded from RPMZ, located miles away from Zamboanga, Philippines







STORIES FROM OUR PARTNERS